Location: Équennes
(49.7375°N, 1.9622°E)
Time: 08:51:18
(UTC+00:00)

Cosmos 1656 - Pass Details

Date: 11 October 2023
Orbit: 797 x 849 km, 71.1° (Epoch: 10 December)

Event Time Altitude Azimuth Distance (km) Brightness Sun altitude
Rises 18:12:20 0° 333° (NNW) 3,317 7.2 -10.8°
Reaches altitude 10° 18:16:30 10° 4° (N) 2,391 6.0 -11.5°
Maximum altitude 18:18:35 12° 27° (NNE) 2,251 5.7 -11.8°
Drops below altitude 10° 18:20:39 10° 49° (NE) 2,398 5.6 -12.2°
Enters shadow 18:21:11 - 55° (NE) 2,477 5.7 -12.3°
